DW7040 Weather Reports


Display with metric or nautical units.
time (UTC)temp
F
wind
direction
speed
MPH
gust
MPH
rain 1hr
in
rain 24hr
in
rain mn
in
humidity
%
barometer
mb
20260901031609 0 0.0 0.0 0.00 0.00 0.00 1008.1
20260901030029 0 0.0 0.0 0.00 0.00 0.00 1008.1
20260901024528 0 0.0 0.0 0.00 0.00 0.00 1008.1
20260901021536 0 0.0 0.0 0.00 0.00 0.00 1008.3
20260901020054 0 0.0 0.0 0.00 0.00 0.00 1008.3
20260901013004 0 0.0 0.0 0.00 0.00 0.00 1008.3
20260901010032 0 0.0 0.0 0.00 0.00 0.00 1008.3
20260901004517 0 241 0.0 0.0 0.00 0.00 0.00 1008.2
20260901001601 0 242 0.0 0.0 0.00 0.00 0.00 1008.3
20260901001524 0 241 0.0 0.0 0.00 0.00 0.00 1008.3
20260901000023 0 241 0.0 0.0 0.00 0.00 0.00 1008.3
20260831234525 0 242 0.0 0.0 0.00 0.00 0.00 1008.3
20260831231557 0 242 0.0 0.0 0.00 0.00 0.00 1008.4
20260831230039 0 242 0.0 0.0 0.00 0.00 0.00 1008.4
20260831224601 0 242 0.0 0.0 0.00 0.00 0.00 1008.5
20260831223036 0 242 0.0 0.0 0.00 0.00 0.00 1008.5
20260831221544 0 241 0.0 0.0 0.00 0.00 0.00 1008.4
20260831220055 0 242 0.0 0.0 0.00 0.00 0.00 1008.4
20260831214514 0 242 0.0 0.0 0.00 0.00 0.00 1008.3
20260831213010 0 241 0.0 0.0 0.00 0.00 0.00 1008.3
20260831211532 0 242 0.0 0.0 0.00 0.00 0.00 1008.2
20260831210026 0 241 0.0 0.0 0.00 0.00 0.00 1008.1
20260831204527 0 241 0.0 0.0 0.00 0.00 0.00 1008.1
20260831203022 0 241 0.0 1.0 0.00 0.00 0.00 1008.2
20260831201537 0 242 0.0 0.0 0.00 0.00 0.00 1008.2
20260831200039 0 242 0.0 0.0 0.00 0.00 0.00 1008.0
20260831194537 0 241 0.0 2.0 0.00 0.00 0.00 1007.8
20260831193036 0 241 0.0 2.0 0.00 0.00 0.00 1007.7
20260831191530 0 242 0.0 3.0 0.00 0.00 0.00 1007.5
20260831190021 0 241 0.0 3.0 0.00 0.00 0.00 1007.4
20260831184540 0 242 0.0 3.0 0.00 0.00 0.00 1007.2
20260831183057 0 242 0.0 4.0 0.00 0.00 0.00 1007.1
20260831181559 0 242 0.0 4.0 0.00 0.00 0.00 1007.0
20260831180022 0 241 1.0 4.0 0.00 0.00 0.00 1006.8
20260831174509 0 241 0.0 3.0 0.00 0.00 0.00 1006.7
20260831173002 0 241 0.0 2.0 0.00 0.00 0.00 1006.6
20260831171559 0 240 0.0 2.0 0.00 0.00 0.00 1006.5
20260831171500 0 240 0.0 2.0 0.00 0.00 0.00 1006.5
20260831170128 0 243 0.0 0.0 0.00 0.00 0.00 1006.4
20260831164550 0 241 0.0 0.0 0.00 0.00 0.00 1006.3
20260831163042 0 241 0.0 2.0 0.00 0.00 0.00 1006.2
20260831161526 0 241 0.0 0.0 0.00 0.00 0.00 1006.1
20260831160030 0 240 0.0 1.0 0.00 0.00 0.00 1006.0
20260831154547 0 240 0.0 0.0 0.00 0.00 0.00 1005.9
20260831153049 0 239 0.0 0.0 0.00 0.00 0.00 1005.8
20260831151505 0 238 0.0 0.0 0.00 0.00 0.00 1005.7
20260831150020 0 238 0.0 0.0 0.00 0.00 0.00 1005.6
20260831144522 0 241 0.0 0.0 0.00 0.00 0.00 1005.6
20260831143052 0 241 0.0 0.0 0.00 0.00 0.00 1005.5
20260831141501 0 240 0.0 0.0 0.00 0.00 0.00 1005.2
20260831140046 0 240 0.0 0.0 0.00 0.00 0.00 1005.2
20260831134537 0 242 0.0 0.0 0.00 0.00 0.00 1005.0
20260831133059 0 240 0.0 0.0 0.00 0.00 0.00 1004.9
20260831133027 0 240 0.0 0.0 0.00 0.00 0.00 1004.9
20260831131524 0 240 0.0 0.0 0.00 0.00 0.00 1004.6
20260831130012 0 237 0.0 0.0 0.00 0.00 0.00 1004.4
20260831124534 0 240 0.0 0.0 0.00 0.00 0.00 1004.3
20260831124506 0 241 0.0 0.0 0.00 0.00 0.00 1004.3
20260831123014 0 238 0.0 0.0 0.00 0.00 0.00 1004.1
20260831121534 0 237 0.0 0.0 0.00 0.00 0.00 1003.9
20260831120039 0 240 0.0 0.0 0.00 0.00 0.00 1003.6
20260831114535 0 240 0.0 0.0 0.00 0.00 0.00 1003.5
20260831113029 0 240 0.0 0.0 0.00 0.00 0.00 1003.3
20260831111529 0 240 0.0 0.0 0.00 0.00 0.00 1003.1
20260831110011 0 241 0.0 0.0 0.00 0.00 0.00 1002.8
20260831104517 0 240 0.0 0.0 0.00 0.00 0.00 1002.7
20260831103048 0 240 0.0 0.0 0.00 0.00 0.00 1002.5
20260831101541 0 240 0.0 0.0 0.00 0.00 0.00 1002.3
20260831100044 0 240 0.0 0.0 0.00 0.00 0.00 1002.0
20260831094527 0 240 0.0 0.0 0.00 0.00 0.00 1001.7
20260831093015 0 242 0.0 0.0 0.00 0.00 0.00 1001.4
20260831091500 0 240 0.0 0.0 0.00 0.00 0.00 1001.2
20260831090011 0 240 0.0 0.0 0.00 0.00 0.00 1000.9
20260831083040 0 240 0.0 0.0 0.00 0.00 0.00 1000.3
20260831081512 0 240 0.0 0.0 0.00 0.00 0.00 1000.0
20260831080052 0 240 0.0 0.0 0.00 0.00 0.00 999.9
20260831074517 0 240 0.0 0.0 0.00 0.00 0.00 999.6
20260831073029 0 242 0.0 0.0 0.00 0.00 0.00 999.3
20260831071506 0 242 0.0 0.0 0.00 0.00 0.00 999.0
20260831070014 0 242 0.0 0.0 0.00 0.00 0.00 998.7
20260831064502 0 242 0.0 0.0 0.00 0.00 0.00 998.3
20260831063029 0 242 0.0 0.0 0.00 0.00 0.00 998.0
20260831061550 0 0.0 0.0 0.00 0.00 0.00 997.7
20260831060038 0 0.0 0.0 0.00 0.00 0.00 997.3
20260831054542 0 0.0 0.0 0.00 0.00 0.00 997.1
20260831051536 0 0.0 0.0 0.00 0.00 0.00 996.6
20260831050051 0 0.0 0.0 0.00 0.00 0.00 996.3
20260831050003 0 0.0 0.0 0.00 0.00 0.00 996.3
20260831044549 0 0.0 0.0 0.00 0.00 0.00 995.9
20260831043001 0 0.0 0.0 0.00 0.00 0.00 995.6
20260831041602 0 0.0 0.0 0.00 0.00 0.00 995.6
20260831040001 0 0.0 0.0 0.00 0.00 0.00 995.3
20260831033046 0 0.0 0.0 0.00 0.00 0.00 995.1